SCP
15 15 13 10 9 10 11 13 14 11 8 7 7 9 9 7 5 5 4 4 4 4 4 4 4 4 4 3 3 3 3 3 3 3 3 4 5 6 5 5 4 4 3
18 17 15 12 11 11 12 12 11 9 8 7 7 9 8 7 5 5 4 4 4 5 5 5 5 5 5 4 4 4 4 4 4 3 3 4 5 7 7 6 5 4 4
20 20 18 15 13 11 11 9 8 7 7 7 7 8 8 7 6 5 5 5 5 5 5 5 6 6 6 6 6 6 5 5 5 5 5 5 6 7 9 8 7 5 4
21 22 20 16 12 10 8 7 6 6 6 6 6 7 7 7 6 5 5 5 5 5 5 5 6 6 7 7 7 7 7 6 6 6 6 7 7 7 9 9 8 6 4
21 21 19 16 11 9 7 7 6 6 6 7 7 7 7 6 5 5 5 5 5 5 5 5 5 5 6 6 7 7 7 7 7 7 7 8 8 7 9 10 9 6 4
17 17 16 13 10 9 7 7 7 8 8 8 9 9 8 5 4 4 4 5 5 5 6 6 6 5 5 5 5 5 6 7 7 7 8 9 9 8 8 10 9 6 3
14 13 12 11 10 9 8 8 8 9 9 11 12 11 8 5 3 3 4 5 6 6 7 7 7 6 6 6 5 4 5 6 6 7 8 9 10 9 9 10 8 5 3
12 11 10 10 9 9 9 9 9 9 10 13 13 11 8 5 3 3 4 6 7 7 7 7 7 6 6 6 5 5 5 6 5 6 7 8 9 9 9 9 7 4 2
11 10 10 9 9 9 9 10 10 10 11 11 10 8 7 6 4 2 4 6 8 8 7 7 6 5 5 4 5 5 6 6 5 5 6 6 7 8 8 7 4 3 2
10 11 11 11 11 10 9 10 10 10 9 8 7 7 7 7 4 2 3 7 8 8 7 6 5 4 3 3 4 6 7 7 6 6 5 5 5 6 5 4 3 2 2
14 15 15 13 11 9 9 9 10 9 8 7 7 7 7 7 4 2 3 6 8 9 8 6 5 4 3 2 3 5 6 7 8 7 6 4 4 4 3 3 3 3 3
20 19 15 11 8 7 8 10 10 9 8 7 8 8 8 7 5 3 3 5 8 10 9 7 5 3 2 1 2 3 4 6 7 8 6 5 4 3 3 3 3 4 4
21 18 13 9 7 8 9 10 10 8 7 8 8 9 9 9 7 5 3 3 6 9 9 6 3 2 1 1 1 2 3 5 6 7 6 5 5 5 5 4 4 4 4
14 13 10 8 9 10 10 10 10 10 9 8 9 10 11 11 10 7 4 4 6 8 6 4 3 2 1 2 2 3 4 5 6 7 6 6 6 6 6 6 6 6 5
9 8 8 9 10 11 9 8 9 10 10 9 9 10 11 12 10 8 6 6 7 6 5 4 4 3 2 3 4 5 5 6 7 7 7 7 7 7 8 8 7 6 6
7 7 8 9 10 9 6 5 5 6 6 6 7 8 9 8 7 5 5 6 5 4 4 5 5 5 4 4 4 5 6 7 7 8 9 9 8 7 7 8 7 6 5
7 7 8 10 10 7 4 3 3 3 3 3 4 4 4 3 2 2 2 2 2 2 4 5 6 5 5 4 4 5 6 7 7 8 9 9 7 6 5 6 6 5 4
6 6 7 10 9 6 4 4 4 5 4 3 2 1 1 0 0 0 0 1 1 2 4 5 5 5 5 5 5 5 6 7 7 7 7 7 6 5 4 4 4 3 3
5 5 7 9 7 4 3 4 6 6 5 4 4 2 1 0 0 0 1 2 3 3 3 3 4 5 6 6 5 6 6 7 7 7 6 6 6 5 4 4 4 3 3
4 5 6 6 5 3 3 4 6 5 4 4 4 3 1 1 1 1 2 3 3 3 3 3 3 4 5 6 6 6 7 7 6 6 6 6 5 5 5 5 5 4 4
5 5 4 4 3 3 3 4 5 4 3 3 3 2 2 1 2 2 3 3 3 4 4 3 4 4 5 5 6 7 6 6 5 5 5 5 5 5 5 5 5 4 4
6 5 3 3 2 2 2 3 4 3 2 2 2 1 1 2 2 2 3 3 4 4 5 5 5 5 5 5 6 6 5 4 4 5 5 5 4 3 3 3 4 4 3
5 4 3 2 2 2 2 3 3 2 2 2 2 2 2 2 3 3 3 4 4 5 6 7 7 6 5 5 5 5 4 4 4 3 4 4 3 2 2 2 2 2 2
4 3 3 2 2 2 2 2 2 2 2 3 3 3 3 4 4 4 4 5 5 5 6 9 9 7 5 4 4 4 4 3 3 2 2 3 3 2 1 1 1 1 1
2 2 3 3 3 2 2 2 2 3 3 4 5 5 5 5 5 5 5 5 5 5 6 9 10 8 6 4 4 3 3 2 1 1 2 2 3 2 2 1 1 0 0
2 2 3 3 3 3 2 2 3 3 4 5 6 6 6 6 5 5 5 4 3 4 6 9 10 9 6 5 4 3 2 1 1 1 2 2 3 3 2 1 1 0 0
Wind_Speed
10 8 7 7 7 5 4 5 4 4 4 4 4 4 4 4 4 4 4 4 4 4 4 4 4 3 3 3 2 2 2 2 2 2 1 2 3 3 4 4 5 5 5
7 7 7 6 6 6 6 5 4 4 4 4 4 4 4 4 4 4 4 4 4 4 4 4 4 4 4 3 3 3 2 2 2 2 2 2 2 3 4 5 5 6 5
7 6 6 6 6 6 5 4 4 4 4 4 4 4 4 4 4 4 4 4 4 4 3 4 4 4 4 3 3 3 2 3 2 3 3 2 2 3 4 4 4 3 5
7 7 6 5 5 5 4 4 4 4 4 4 4 4 4 4 3 3 4 4 4 4 4 4 4 4 4 4 4 3 3 3 3 3 3 3 2 3 3 3 3 3 3
6 6 5 5 4 4 4 3 4 4 5 4 4 4 4 4 4 3 4 5 4 4 4 3 4 3 4 3 3 3 3 3 3 3 3 2 2 2 3 3 3 3 2
5 5 5 5 4 4 4 4 4 4 4 4 5 4 5 5 3 4 3 4 3 4 4 3 3 4 4 5 3 2 3 4 4 3 3 3 3 3 3 3 2 3 3
4 4 4 5 5 4 5 4 4 3 4 4 4 4 4 4 4 4 4 3 4 4 4 3 4 4 3 3 4 4 3 4 5 4 4 4 3 3 3 4 3 3 3
4 4 4 5 4 4 4 4 3 3 3 3 4 4 4 4 5 5 4 5 5 5 4 4 4 3 3 2 3 4 4 4 5 5 4 3 3 3 4 4 4 3 3
3 4 4 5 4 4 3 3 2 3 3 3 3 3 4 4 5 5 4 4 4 5 5 5 5 4 4 4 4 4 3 3 4 4 4 4 4 4 4 2 3 3 3
3 3 3 4 4 4 4 3 3 3 3 3 3 3 3 3 5 6 5 4 4 3 3 3 4 4 4 5 4 4 4 4 3 3 3 4 4 5 6 5 4 4 3
2 2 3 3 4 4 4 4 4 4 4 3 4 4 4 5 6 8 7 4 4 3 3 2 1 3 3 4 5 4 5 4 3 4 4 4 4 3 4 4 4 4 3
1 2 2 3 4 4 3 4 4 5 5 5 5 5 5 5 6 7 8 7 4 3 3 2 1 2 2 3 4 5 5 4 3 3 4 3 3 4 3 4 4 4 4
1 2 2 3 3 3 4 4 4 5 5 5 5 5 4 3 3 6 7 6 5 3 2 2 2 2 3 4 6 6 5 4 4 4 4 3 3 3 3 3 4 4 3
1 2 2 3 3 3 3 4 5 4 4 4 4 4 3 2 2 2 2 3 3 3 3 3 3 3 3 4 3 3 4 4 4 4 4 3 2 2 3 3 3 3 3
2 3 3 4 4 3 4 4 4 2 2 3 3 2 2 2 2 2 1 1 1 1 2 3 3 2 3 3 3 3 3 3 4 4 3 3 3 3 3 3 2 3 3
3 3 4 3 3 3 3 3 2 4 5 5 4 4 3 3 4 2 2 2 2 2 2 3 4 4 4 3 3 3 3 3 3 3 3 3 3 3 3 3 3 3 3
3 3 4 3 3 4 3 3 2 2 2 3 5 6 6 5 5 4 4 3 3 4 3 4 4 4 4 4 3 3 3 3 3 3 3 3 3 3 3 3 3 3 3
4 4 4 3 3 3 3 3 3 3 3 2 3 6 7 7 7 6 4 2 4 4 5 5 5 4 3 3 3 3 2 2 2 3 3 3 3 3 3 3 3 3 3
4 3 2 3 3 3 3 3 3 3 2 2 2 3 5 5 5 5 5 4 5 4 4 4 4 4 3 3 2 2 2 3 3 3 3 3 3 3 3 3 3 4 4
3 3 3 3 4 3 3 3 3 3 3 2 2 2 2 3 3 4 4 4 4 4 4 4 3 3 2 2 2 2 3 3 3 3 3 3 2 3 3 3 3 3 3
4 2 3 3 3 3 3 3 2 2 2 2 2 3 4 3 4 3 3 4 4 4 3 3 3 3 3 3 2 3 3 3 3 2 2 2 2 2 2 2 2 2 2
4 4 3 2 2 2 3 3 2 2 3 3 3 3 5 4 4 3 3 3 3 3 2 2 3 2 2 2 2 3 3 3 2 2 2 3 2 2 2 2 2 1 1
4 4 3 3 2 2 3 2 2 2 3 3 2 2 2 3 3 2 2 3 2 2 1 1 2 2 2 2 2 2 2 3 2 2 2 2 2 2 2 2 2 1 2
4 4 4 3 2 2 2 2 2 2 2 2 2 2 2 2 2 2 3 3 3 3 2 2 3 3 3 3 2 2 1 1 2 2 2 2 2 2 2 2 2 3 2
3 3 3 2 2 2 2 1 1 2 2 2 2 2 2 2 3 3 2 2 3 3 4 3 3 3 4 3 2 1 1 2 1 1 2 2 3 3 3 3 3 3 3
3 2 2 2 2 2 2 2 2 2 2 2 2 2 2 2 2 2 2 2 3 3 3 3 3 3 3 2 2 2 2 2 1 1 2 3 4 4 4 3 4 4 4
Wind_Direction
186 188 194 190 198 206 212 212 213 212 213 203 203 207 214 217 220 222 234 232 228 235 240 232 233 246 254 264 258 244 238 217 233 248 245 171 163 154 158 157 159 166 165
177 181 188 186 192 203 208 206 205 207 210 203 204 212 220 220 222 222 237 239 234 234 235 235 235 234 234 254 258 245 238 219 212 235 233 200 192 178 170 187 183 181 173
168 170 178 188 194 202 203 201 200 202 202 203 199 210 220 224 222 224 235 244 241 241 241 240 240 236 231 231 240 245 240 236 208 216 234 214 200 194 187 210 202 187 183
164 169 173 187 191 194 197 194 197 199 199 198 204 211 217 225 224 228 239 243 243 245 245 242 242 237 232 234 239 244 250 254 233 220 228 220 208 200 196 203 210 203 198
158 168 173 183 188 184 188 191 195 200 204 196 202 211 217 222 221 221 240 241 243 247 248 246 243 231 224 227 237 229 236 245 247 232 226 225 214 200 210 215 214 207 199
159 171 166 172 183 185 187 188 194 201 206 199 204 213 220 225 202 206 221 248 244 242 247 250 250 228 222 213 218 220 223 236 250 247 235 220 215 212 216 226 219 211 214
167 172 175 179 185 187 197 189 191 197 206 210 212 211 218 214 206 202 214 242 246 241 239 239 252 248 221 214 217 223 240 248 247 249 255 245 221 211 214 225 222 224 226
170 182 184 188 193 194 201 197 196 203 214 216 222 216 221 215 204 208 220 236 246 243 236 229 233 249 243 217 229 226 230 243 245 238 247 253 236 215 209 218 226 228 223
173 187 189 191 198 195 196 200 197 209 219 224 226 224 233 220 198 202 210 246 244 243 236 231 222 220 210 209 219 225 237 243 242 230 236 246 245 231 216 217 224 215 219
192 193 188 188 194 195 192 192 207 213 219 229 234 236 241 234 205 200 202 242 249 245 236 228 218 208 202 203 219 224 231 241 248 238 236 248 241 224 213 211 214 219 221
207 200 193 195 202 202 191 189 203 220 222 225 232 229 228 224 204 198 198 230 255 254 239 228 190 169 192 214 227 235 238 249 250 245 233 222 218 219 212 214 211 209 214
249 229 203 199 217 211 194 200 209 219 225 228 230 231 230 218 207 199 200 214 239 259 261 238 159 167 207 227 231 235 243 251 254 248 240 224 212 212 215 212 210 215 217
270 250 216 211 211 208 205 214 222 221 226 227 224 228 227 210 189 183 195 213 233 241 267 284 281 251 245 246 237 238 238 238 235 239 239 235 219 210 207 206 204 204 221
258 264 230 225 217 209 213 225 228 227 230 228 231 232 223 199 181 165 190 209 222 233 258 270 254 242 240 251 253 243 230 235 233 231 234 234 224 214 213 205 202 199 202
236 249 241 234 222 212 215 232 235 228 237 239 245 247 241 228 185 162 193 224 236 249 276 257 250 236 233 232 235 232 228 222 234 243 240 238 229 220 219 212 206 211 211
255 256 255 242 220 221 221 239 238 229 220 216 215 219 220 201 196 211 212 212 204 197 233 249 248 243 242 240 237 239 237 235 234 237 240 239 237 232 228 217 206 209 215
275 276 271 259 245 238 228 225 237 253 248 238 230 221 212 206 207 220 236 243 230 201 227 242 244 238 239 243 242 240 239 235 233 235 239 241 238 236 233 231 217 209 217
282 270 262 262 260 257 254 252 240 229 223 233 236 219 211 213 216 221 226 242 246 221 230 235 239 234 234 236 243 248 245 233 230 240 244 241 238 236 231 226 223 218 220
285 281 276 291 289 276 262 258 257 252 244 233 218 218 215 212 213 215 211 230 247 248 243 239 239 238 235 229 231 236 239 235 227 228 239 238 234 234 236 231 221 212 218
272 266 267 276 279 280 272 260 258 257 250 243 238 232 202 215 221 216 217 232 241 250 252 248 244 240 228 225 223 227 237 240 227 230 242 236 235 236 241 241 235 225 222
293 271 245 262 276 289 285 277 271 265 260 249 242 222 214 225 232 229 231 231 237 243 250 251 244 233 227 217 221 230 239 245 240 234 242 248 249 251 251 245 246 243 231
291 294 290 284 280 280 284 276 269 267 265 263 255 224 213 235 248 240 239 240 242 241 239 247 262 258 249 243 236 237 239 243 245 240 244 247 247 250 251 246 236 229 229
288 290 285 272 269 255 260 277 277 266 265 260 255 253 237 248 249 243 245 247 245 250 244 239 256 260 252 239 234 235 241 249 251 247 254 257 258 262 270 275 270 253 227
293 295 291 282 272 271 273 279 287 287 284 284 279 264 254 245 246 246 248 247 244 245 245 243 249 255 257 251 229 222 231 254 264 262 263 255 251 258 261 260 259 255 244
303 302 293 288 288 288 289 290 291 289 296 302 296 286 277 262 252 239 226 228 243 243 243 242 236 235 234 239 245 241 193 169 173 281 269 248 242 243 243 249 252 254 249
298 300 306 316 318 316 308 299 286 274 272 282 276 269 271 268 264 256 242 236 239 242 242 239 235 231 222 215 201 150 141 143 166 225 249 240 235 237 236 238 244 245 246